#datetime,building,power
2022-01-23T00:00:00,mcc,50.10
2022-01-23T00:01:00,mcc,48.88
2022-01-23T00:02:00,mcc,50.04
2022-01-23T00:03:00,mcc,49.45
2022-01-23T00:04:00,mcc,46.72
2022-01-23T00:05:00,mcc,55.59
2022-01-23T00:06:00,mcc,56.12
2022-01-23T00:07:00,mcc,57.56
2022-01-23T00:08:00,mcc,55.82
2022-01-23T00:09:00,mcc,46.81
2022-01-23T00:10:00,mcc,42.54
2022-01-23T00:11:00,mcc,43.00
2022-01-23T00:12:00,mcc,42.97
2022-01-23T00:13:00,mcc,43.03
2022-01-23T00:14:00,mcc,43.82
2022-01-23T00:15:00,mcc,42.75
2022-01-23T00:16:00,mcc,42.50
2022-01-23T00:17:00,mcc,43.55
2022-01-23T00:18:00,mcc,47.48
2022-01-23T00:19:00,mcc,42.51
2022-01-23T00:20:00,mcc,43.98
2022-01-23T00:21:00,mcc,47.29
2022-01-23T00:22:00,mcc,45.11
2022-01-23T00:23:00,mcc,42.75
2022-01-23T00:24:00,mcc,43.90
2022-01-23T00:25:00,mcc,49.54
2022-01-23T00:26:00,mcc,41.01
2022-01-23T00:27:00,mcc,42.52
2022-01-23T00:28:00,mcc,42.25
2022-01-23T00:29:00,mcc,42.83
2022-01-23T00:30:00,mcc,42.57
2022-01-23T00:31:00,mcc,44.39
2022-01-23T00:32:00,mcc,46.15
2022-01-23T00:33:00,mcc,61.12
2022-01-23T00:34:00,mcc,47.59
2022-01-23T00:35:00,mcc,45.76
2022-01-23T00:36:00,mcc,43.39
2022-01-23T00:37:00,mcc,54.57
2022-01-23T00:38:00,mcc,39.12
2022-01-23T00:39:00,mcc,43.35
2022-01-23T00:40:00,mcc,43.00
2022-01-23T00:41:00,mcc,41.68
2022-01-23T00:42:00,mcc,41.53
2022-01-23T00:43:00,mcc,42.46
2022-01-23T00:44:00,mcc,40.31
2022-01-23T00:45:00,mcc,41.73
2022-01-23T00:46:00,mcc,41.26
2022-01-23T00:47:00,mcc,43.58
2022-01-23T00:48:00,mcc,43.63
2022-01-23T00:49:00,mcc,44.02
2022-01-23T00:50:00,mcc,43.77
2022-01-23T00:51:00,mcc,42.70
2022-01-23T00:52:00,mcc,42.90
2022-01-23T00:53:00,mcc,45.20
2022-01-23T00:54:00,mcc,40.35
2022-01-23T00:55:00,mcc,40.40
2022-01-23T00:56:00,mcc,42.38
2022-01-23T00:57:00,mcc,41.41
2022-01-23T00:58:00,mcc,43.51
2022-01-23T00:59:00,mcc,50.94
2022-01-23T01:00:00,mcc,41.72
2022-01-23T01:01:00,mcc,40.33
2022-01-23T01:02:00,mcc,37.75
2022-01-23T01:03:00,mcc,38.39
2022-01-23T01:04:00,mcc,43.28
2022-01-23T01:05:00,mcc,43.09
2022-01-23T01:06:00,mcc,43.14
2022-01-23T01:07:00,mcc,42.26
2022-01-23T01:08:00,mcc,40.37
2022-01-23T01:09:00,mcc,39.12
2022-01-23T01:10:00,mcc,39.66
2022-01-23T01:11:00,mcc,39.94
2022-01-23T01:12:00,mcc,40.00
2022-01-23T01:13:00,mcc,44.90
2022-01-23T01:14:00,mcc,40.60
2022-01-23T01:15:00,mcc,39.59
2022-01-23T01:16:00,mcc,41.99
2022-01-23T01:17:00,mcc,38.23
2022-01-23T01:18:00,mcc,39.26
2022-01-23T01:19:00,mcc,40.64
2022-01-23T01:20:00,mcc,38.13
2022-01-23T01:21:00,mcc,37.90
2022-01-23T01:22:00,mcc,38.18
2022-01-23T01:23:00,mcc,37.17
2022-01-23T01:24:00,mcc,38.39
2022-01-23T01:25:00,mcc,34.92
2022-01-23T01:26:00,mcc,36.95
2022-01-23T01:27:00,mcc,39.76
2022-01-23T01:28:00,mcc,36.05
2022-01-23T01:29:00,mcc,35.56
2022-01-23T01:30:00,mcc,37.93
2022-01-23T01:31:00,mcc,37.53
2022-01-23T01:32:00,mcc,35.14
2022-01-23T01:33:00,mcc,37.85
2022-01-23T01:34:00,mcc,36.83
2022-01-23T01:35:00,mcc,37.70
2022-01-23T01:36:00,mcc,40.91
2022-01-23T01:37:00,mcc,38.40
2022-01-23T01:38:00,mcc,38.20
2022-01-23T01:39:00,mcc,43.08
2022-01-23T01:40:00,mcc,41.82
2022-01-23T01:41:00,mcc,42.21
2022-01-23T01:42:00,mcc,40.50
2022-01-23T01:43:00,mcc,39.35
2022-01-23T01:44:00,mcc,38.85
2022-01-23T01:45:00,mcc,38.06
2022-01-23T01:46:00,mcc,39.25
2022-01-23T01:47:00,mcc,39.20
2022-01-23T01:48:00,mcc,38.13
2022-01-23T01:49:00,mcc,35.19
2022-01-23T01:50:00,mcc,33.77
2022-01-23T01:51:00,mcc,35.26
2022-01-23T01:52:00,mcc,43.53
2022-01-23T01:53:00,mcc,34.79
2022-01-23T01:54:00,mcc,34.16
2022-01-23T01:55:00,mcc,35.08
2022-01-23T01:56:00,mcc,36.18
2022-01-23T01:57:00,mcc,35.21
2022-01-23T01:58:00,mcc,38.27
2022-01-23T01:59:00,mcc,37.51
2022-01-23T02:00:00,mcc,36.06
2022-01-23T02:01:00,mcc,34.17
2022-01-23T02:02:00,mcc,36.34
2022-01-23T02:03:00,mcc,34.08
2022-01-23T02:04:00,mcc,36.43
2022-01-23T02:05:00,mcc,36.81
2022-01-23T02:06:00,mcc,37.74
2022-01-23T02:07:00,mcc,38.31
2022-01-23T02:08:00,mcc,41.77
2022-01-23T02:09:00,mcc,38.06
2022-01-23T02:10:00,mcc,37.34
2022-01-23T02:11:00,mcc,37.59
2022-01-23T02:12:00,mcc,37.79
2022-01-23T02:13:00,mcc,36.80
2022-01-23T02:14:00,mcc,36.21
2022-01-23T02:15:00,mcc,35.32
2022-01-23T02:16:00,mcc,35.27
2022-01-23T02:17:00,mcc,36.45
2022-01-23T02:18:00,mcc,38.04
2022-01-23T02:19:00,mcc,38.24
2022-01-23T02:20:00,mcc,36.90
2022-01-23T02:21:00,mcc,37.93
2022-01-23T02:22:00,mcc,35.06
2022-01-23T02:23:00,mcc,35.03
2022-01-23T02:24:00,mcc,36.87
2022-01-23T02:25:00,mcc,40.38
2022-01-23T02:26:00,mcc,37.90
2022-01-23T02:27:00,mcc,35.81
2022-01-23T02:28:00,mcc,34.55
2022-01-23T02:29:00,mcc,34.58
2022-01-23T02:30:00,mcc,34.71
2022-01-23T02:31:00,mcc,39.76
2022-01-23T02:32:00,mcc,39.15
2022-01-23T02:33:00,mcc,36.20
2022-01-23T02:34:00,mcc,36.68
2022-01-23T02:35:00,mcc,36.65
2022-01-23T02:36:00,mcc,36.36
2022-01-23T02:37:00,mcc,40.29
2022-01-23T02:38:00,mcc,41.20
2022-01-23T02:39:00,mcc,38.65
2022-01-23T02:40:00,mcc,41.13
2022-01-23T02:41:00,mcc,38.84
2022-01-23T02:42:00,mcc,39.45
2022-01-23T02:43:00,mcc,40.44
2022-01-23T02:44:00,mcc,39.04
2022-01-23T02:45:00,mcc,35.31
2022-01-23T02:46:00,mcc,34.38
2022-01-23T02:47:00,mcc,34.81
2022-01-23T02:48:00,mcc,36.16
2022-01-23T02:49:00,mcc,35.35
2022-01-23T02:50:00,mcc,35.35
2022-01-23T02:51:00,mcc,36.19
2022-01-23T02:52:00,mcc,36.01
2022-01-23T02:53:00,mcc,35.29
2022-01-23T02:54:00,mcc,36.68
2022-01-23T02:55:00,mcc,34.52
2022-01-23T02:56:00,mcc,34.66
2022-01-23T02:57:00,mcc,36.98
2022-01-23T02:58:00,mcc,35.74
2022-01-23T02:59:00,mcc,35.71
2022-01-23T03:00:00,mcc,35.37
2022-01-23T03:01:00,mcc,35.04
2022-01-23T03:02:00,mcc,35.41
2022-01-23T03:03:00,mcc,44.72
2022-01-23T03:04:00,mcc,38.11
2022-01-23T03:05:00,mcc,37.68
2022-01-23T03:06:00,mcc,39.20
2022-01-23T03:07:00,mcc,41.35
2022-01-23T03:08:00,mcc,40.52
2022-01-23T03:09:00,mcc,39.31
2022-01-23T03:10:00,mcc,41.39
2022-01-23T03:11:00,mcc,38.81
2022-01-23T03:12:00,mcc,38.34
2022-01-23T03:13:00,mcc,37.06
2022-01-23T03:14:00,mcc,36.54
2022-01-23T03:15:00,mcc,38.79
2022-01-23T03:16:00,mcc,38.98
2022-01-23T03:17:00,mcc,38.29
2022-01-23T03:18:00,mcc,40.40
2022-01-23T03:19:00,mcc,36.64
2022-01-23T03:20:00,mcc,35.05
2022-01-23T03:21:00,mcc,37.22
2022-01-23T03:22:00,mcc,35.74
2022-01-23T03:23:00,mcc,39.87
2022-01-23T03:24:00,mcc,38.70
2022-01-23T03:25:00,mcc,37.24
2022-01-23T03:26:00,mcc,35.57
2022-01-23T03:27:00,mcc,38.92
2022-01-23T03:28:00,mcc,36.49
2022-01-23T03:29:00,mcc,37.60
2022-01-23T03:30:00,mcc,42.79
2022-01-23T03:31:00,mcc,40.14
2022-01-23T03:32:00,mcc,46.97
2022-01-23T03:33:00,mcc,47.79
2022-01-23T03:34:00,mcc,48.44
2022-01-23T03:35:00,mcc,45.95
2022-01-23T03:36:00,mcc,42.02
2022-01-23T03:37:00,mcc,38.60
2022-01-23T03:38:00,mcc,45.20
2022-01-23T03:39:00,mcc,38.21
2022-01-23T03:40:00,mcc,36.22
2022-01-23T03:41:00,mcc,36.28
2022-01-23T03:42:00,mcc,37.91
2022-01-23T03:43:00,mcc,35.55
2022-01-23T03:44:00,mcc,35.64
2022-01-23T03:45:00,mcc,47.09
2022-01-23T03:46:00,mcc,44.68
2022-01-23T03:47:00,mcc,46.00
2022-01-23T03:48:00,mcc,35.71
2022-01-23T03:49:00,mcc,38.21
2022-01-23T03:50:00,mcc,39.26
2022-01-23T03:51:00,mcc,36.98
2022-01-23T03:52:00,mcc,37.74
2022-01-23T03:53:00,mcc,39.40
2022-01-23T03:54:00,mcc,41.35
2022-01-23T03:55:00,mcc,48.37
2022-01-23T03:56:00,mcc,38.47
2022-01-23T03:57:00,mcc,36.28
2022-01-23T03:58:00,mcc,37.36
2022-01-23T03:59:00,mcc,39.88
2022-01-23T04:00:00,mcc,36.75
2022-01-23T04:01:00,mcc,36.71
2022-01-23T04:02:00,mcc,37.98
2022-01-23T04:03:00,mcc,38.24
2022-01-23T04:04:00,mcc,38.91
2022-01-23T04:05:00,mcc,39.16
2022-01-23T04:06:00,mcc,38.11
2022-01-23T04:07:00,mcc,36.07
2022-01-23T04:08:00,mcc,34.27
2022-01-23T04:09:00,mcc,35.07
2022-01-23T04:10:00,mcc,37.02
2022-01-23T04:11:00,mcc,39.61
2022-01-23T04:12:00,mcc,36.87
2022-01-23T04:13:00,mcc,35.67
2022-01-23T04:14:00,mcc,36.66
2022-01-23T04:15:00,mcc,35.44
2022-01-23T04:16:00,mcc,36.93
2022-01-23T04:17:00,mcc,37.61
2022-01-23T04:18:00,mcc,35.60
2022-01-23T04:19:00,mcc,36.08
2022-01-23T04:20:00,mcc,37.12
2022-01-23T04:21:00,mcc,35.51
2022-01-23T04:22:00,mcc,36.33
2022-01-23T04:23:00,mcc,50.06
2022-01-23T04:24:00,mcc,37.40
2022-01-23T04:25:00,mcc,36.31
2022-01-23T04:26:00,mcc,42.22
2022-01-23T04:27:00,mcc,40.81
2022-01-23T04:28:00,mcc,40.75
2022-01-23T04:29:00,mcc,41.31
2022-01-23T04:30:00,mcc,40.29
2022-01-23T04:31:00,mcc,36.92
2022-01-23T04:32:00,mcc,46.58
2022-01-23T04:33:00,mcc,36.16
2022-01-23T04:34:00,mcc,35.58
2022-01-23T04:35:00,mcc,37.60
2022-01-23T04:36:00,mcc,37.96
2022-01-23T04:37:00,mcc,36.18
2022-01-23T04:38:00,mcc,39.23
2022-01-23T04:39:00,mcc,36.82
2022-01-23T04:40:00,mcc,36.67
2022-01-23T04:41:00,mcc,37.10
2022-01-23T04:42:00,mcc,37.28
2022-01-23T04:43:00,mcc,38.42
2022-01-23T04:44:00,mcc,37.78
2022-01-23T04:45:00,mcc,37.96
2022-01-23T04:46:00,mcc,37.74
2022-01-23T04:47:00,mcc,37.81
2022-01-23T04:48:00,mcc,37.28
2022-01-23T04:49:00,mcc,40.77
2022-01-23T04:50:00,mcc,36.35
2022-01-23T04:51:00,mcc,36.33
2022-01-23T04:52:00,mcc,35.06
2022-01-23T04:53:00,mcc,36.98
2022-01-23T04:54:00,mcc,36.76
2022-01-23T04:55:00,mcc,36.83
2022-01-23T04:56:00,mcc,39.05
2022-01-23T04:57:00,mcc,39.39
2022-01-23T04:58:00,mcc,38.03
2022-01-23T04:59:00,mcc,38.15
2022-01-23T05:00:00,mcc,36.87
2022-01-23T05:01:00,mcc,39.58
2022-01-23T05:02:00,mcc,37.98
2022-01-23T05:03:00,mcc,40.12
2022-01-23T05:04:00,mcc,38.73
2022-01-23T05:05:00,mcc,34.51
2022-01-23T05:06:00,mcc,34.72
2022-01-23T05:07:00,mcc,36.71
2022-01-23T05:08:00,mcc,35.92
2022-01-23T05:09:00,mcc,39.45
2022-01-23T05:10:00,mcc,40.13
2022-01-23T05:11:00,mcc,35.53
2022-01-23T05:12:00,mcc,36.96
2022-01-23T05:13:00,mcc,39.69
2022-01-23T05:14:00,mcc,37.63
2022-01-23T05:15:00,mcc,38.36
2022-01-23T05:16:00,mcc,40.92
2022-01-23T05:17:00,mcc,36.16
2022-01-23T05:18:00,mcc,35.55
2022-01-23T05:19:00,mcc,37.29
2022-01-23T05:20:00,mcc,38.20
2022-01-23T05:21:00,mcc,38.71
2022-01-23T05:22:00,mcc,39.64
2022-01-23T05:23:00,mcc,40.37
2022-01-23T05:24:00,mcc,36.76
2022-01-23T05:25:00,mcc,47.48
2022-01-23T05:26:00,mcc,38.63
2022-01-23T05:27:00,mcc,37.83
2022-01-23T05:28:00,mcc,41.14
2022-01-23T05:29:00,mcc,39.24
2022-01-23T05:30:00,mcc,38.04
2022-01-23T05:31:00,mcc,36.49
2022-01-23T05:32:00,mcc,37.26
2022-01-23T05:33:00,mcc,35.66
2022-01-23T05:34:00,mcc,37.89
2022-01-23T05:35:00,mcc,37.43
2022-01-23T05:36:00,mcc,39.09
2022-01-23T05:37:00,mcc,36.42
2022-01-23T05:38:00,mcc,36.60
2022-01-23T05:39:00,mcc,36.98
2022-01-23T05:40:00,mcc,33.81
2022-01-23T05:41:00,mcc,35.34
2022-01-23T05:42:00,mcc,37.21
2022-01-23T05:43:00,mcc,42.36
2022-01-23T05:44:00,mcc,35.23
2022-01-23T05:45:00,mcc,36.41
2022-01-23T05:46:00,mcc,34.07
2022-01-23T05:47:00,mcc,36.75
2022-01-23T05:48:00,mcc,39.56
2022-01-23T05:49:00,mcc,37.22
2022-01-23T05:50:00,mcc,37.50
2022-01-23T05:51:00,mcc,39.73
2022-01-23T05:52:00,mcc,36.31
2022-01-23T05:53:00,mcc,38.07
2022-01-23T05:54:00,mcc,40.17
2022-01-23T05:55:00,mcc,38.86
2022-01-23T05:56:00,mcc,38.08
2022-01-23T05:57:00,mcc,37.89
2022-01-23T05:58:00,mcc,35.27
2022-01-23T05:59:00,mcc,35.14
2022-01-23T06:00:00,mcc,36.52
2022-01-23T06:01:00,mcc,43.29
2022-01-23T06:02:00,mcc,34.87
2022-01-23T06:03:00,mcc,34.75
2022-01-23T06:04:00,mcc,32.36
2022-01-23T06:05:00,mcc,33.76
2022-01-23T06:06:00,mcc,35.97
2022-01-23T06:07:00,mcc,36.99
2022-01-23T06:08:00,mcc,35.71
2022-01-23T06:09:00,mcc,34.36
2022-01-23T06:10:00,mcc,34.09
2022-01-23T06:11:00,mcc,35.76
2022-01-23T06:12:00,mcc,33.22
2022-01-23T06:13:00,mcc,34.28
2022-01-23T06:14:00,mcc,38.10
2022-01-23T06:15:00,mcc,35.83
2022-01-23T06:16:00,mcc,35.33
2022-01-23T06:17:00,mcc,38.00
2022-01-23T06:18:00,mcc,37.85
2022-01-23T06:19:00,mcc,37.94
2022-01-23T06:20:00,mcc,41.74
2022-01-23T06:21:00,mcc,40.47
2022-01-23T06:22:00,mcc,38.98
2022-01-23T06:23:00,mcc,39.21
2022-01-23T06:24:00,mcc,38.87
2022-01-23T06:25:00,mcc,39.28
2022-01-23T06:26:00,mcc,37.28
2022-01-23T06:27:00,mcc,36.62
2022-01-23T06:28:00,mcc,36.09
2022-01-23T06:29:00,mcc,36.86
2022-01-23T06:30:00,mcc,34.99
2022-01-23T06:31:00,mcc,33.55
2022-01-23T06:32:00,mcc,35.86
2022-01-23T06:33:00,mcc,35.29
2022-01-23T06:34:00,mcc,36.35
2022-01-23T06:35:00,mcc,34.66
2022-01-23T06:36:00,mcc,34.06
2022-01-23T06:37:00,mcc,33.88
2022-01-23T06:38:00,mcc,35.57
2022-01-23T06:39:00,mcc,36.61
2022-01-23T06:40:00,mcc,39.34
2022-01-23T06:41:00,mcc,37.37
2022-01-23T06:42:00,mcc,37.18
2022-01-23T06:43:00,mcc,38.51
2022-01-23T06:44:00,mcc,36.11
2022-01-23T06:45:00,mcc,38.69
2022-01-23T06:46:00,mcc,40.12
2022-01-23T06:47:00,mcc,37.52
2022-01-23T06:48:00,mcc,37.91
2022-01-23T06:49:00,mcc,38.58
2022-01-23T06:50:00,mcc,35.18
2022-01-23T06:51:00,mcc,36.70
2022-01-23T06:52:00,mcc,38.27
2022-01-23T06:53:00,mcc,38.62
2022-01-23T06:54:00,mcc,34.44
2022-01-23T06:55:00,mcc,36.41
2022-01-23T06:56:00,mcc,35.43
2022-01-23T06:57:00,mcc,35.31
2022-01-23T06:58:00,mcc,38.83
2022-01-23T06:59:00,mcc,39.22
2022-01-23T07:00:00,mcc,38.11
2022-01-23T07:01:00,mcc,38.26
2022-01-23T07:02:00,mcc,35.41
2022-01-23T07:03:00,mcc,35.33
2022-01-23T07:04:00,mcc,37.90
2022-01-23T07:05:00,mcc,36.97
2022-01-23T07:06:00,mcc,36.77
2022-01-23T07:07:00,mcc,35.55
2022-01-23T07:08:00,mcc,35.15
2022-01-23T07:09:00,mcc,33.91
2022-01-23T07:10:00,mcc,34.76
2022-01-23T07:11:00,mcc,34.25
2022-01-23T07:12:00,mcc,35.06
2022-01-23T07:13:00,mcc,36.52
2022-01-23T07:14:00,mcc,35.58
2022-01-23T07:15:00,mcc,38.81
2022-01-23T07:16:00,mcc,38.14
2022-01-23T07:17:00,mcc,46.67
2022-01-23T07:18:00,mcc,48.68
2022-01-23T07:19:00,mcc,45.34
2022-01-23T07:20:00,mcc,43.32
2022-01-23T07:21:00,mcc,36.83
2022-01-23T07:22:00,mcc,32.03
2022-01-23T07:23:00,mcc,32.48
2022-01-23T07:24:00,mcc,32.12
2022-01-23T07:25:00,mcc,43.99
2022-01-23T07:26:00,mcc,43.69
2022-01-23T07:27:00,mcc,44.14
2022-01-23T07:28:00,mcc,44.70
2022-01-23T07:29:00,mcc,35.52
2022-01-23T07:30:00,mcc,34.37
2022-01-23T07:31:00,mcc,36.78
2022-01-23T07:32:00,mcc,33.91
2022-01-23T07:33:00,mcc,35.68
2022-01-23T07:34:00,mcc,33.02
2022-01-23T07:35:00,mcc,33.08
2022-01-23T07:36:00,mcc,37.68
2022-01-23T07:37:00,mcc,33.54
2022-01-23T07:38:00,mcc,34.05
2022-01-23T07:39:00,mcc,36.68
2022-01-23T07:40:00,mcc,37.60
2022-01-23T07:41:00,mcc,38.99
2022-01-23T07:42:00,mcc,39.67
2022-01-23T07:43:00,mcc,37.69
2022-01-23T07:44:00,mcc,37.04
2022-01-23T07:45:00,mcc,40.27
2022-01-23T07:46:00,mcc,37.19
2022-01-23T07:47:00,mcc,36.93
2022-01-23T07:48:00,mcc,36.91
2022-01-23T07:49:00,mcc,38.93
2022-01-23T07:50:00,mcc,37.68
2022-01-23T07:51:00,mcc,37.96
2022-01-23T07:52:00,mcc,37.32
2022-01-23T07:53:00,mcc,36.64
2022-01-23T07:54:00,mcc,37.21
2022-01-23T07:55:00,mcc,33.62
2022-01-23T07:56:00,mcc,35.12
2022-01-23T07:57:00,mcc,37.74
2022-01-23T07:58:00,mcc,35.58
2022-01-23T07:59:00,mcc,34.76
2022-01-23T08:00:00,mcc,36.40
2022-01-23T08:01:00,mcc,34.57
2022-01-23T08:02:00,mcc,35.85
2022-01-23T08:03:00,mcc,37.21
2022-01-23T08:04:00,mcc,34.60
2022-01-23T08:05:00,mcc,36.43
2022-01-23T08:06:00,mcc,37.00
2022-01-23T08:07:00,mcc,35.80
2022-01-23T08:08:00,mcc,39.68
2022-01-23T08:09:00,mcc,37.57
2022-01-23T08:10:00,mcc,36.61
2022-01-23T08:11:00,mcc,39.52
2022-01-23T08:12:00,mcc,37.66
2022-01-23T08:13:00,mcc,36.80
2022-01-23T08:14:00,mcc,37.95
2022-01-23T08:15:00,mcc,34.03
2022-01-23T08:16:00,mcc,32.36
2022-01-23T08:17:00,mcc,33.99
2022-01-23T08:18:00,mcc,36.09
2022-01-23T08:19:00,mcc,35.21
2022-01-23T08:20:00,mcc,37.85
2022-01-23T08:21:00,mcc,37.35
2022-01-23T08:22:00,mcc,36.64
2022-01-23T08:23:00,mcc,36.81
2022-01-23T08:24:00,mcc,37.14
2022-01-23T08:25:00,mcc,37.81
2022-01-23T08:26:00,mcc,38.52
2022-01-23T08:27:00,mcc,35.29
2022-01-23T08:28:00,mcc,36.03
2022-01-23T08:29:00,mcc,38.47
2022-01-23T08:30:00,mcc,35.58
2022-01-23T08:31:00,mcc,35.23
2022-01-23T08:32:00,mcc,39.25
2022-01-23T08:33:00,mcc,36.42
2022-01-23T08:34:00,mcc,35.45
2022-01-23T08:35:00,mcc,37.22
2022-01-23T08:36:00,mcc,36.96
2022-01-23T08:37:00,mcc,36.87
2022-01-23T08:38:00,mcc,41.04
2022-01-23T08:39:00,mcc,36.65
2022-01-23T08:40:00,mcc,45.36
2022-01-23T08:41:00,mcc,39.15
2022-01-23T08:42:00,mcc,37.82
2022-01-23T08:43:00,mcc,37.69
2022-01-23T08:44:00,mcc,36.97
2022-01-23T08:45:00,mcc,35.67
2022-01-23T08:46:00,mcc,35.62
2022-01-23T08:47:00,mcc,35.32
2022-01-23T08:48:00,mcc,33.63
2022-01-23T08:49:00,mcc,32.38
2022-01-23T08:50:00,mcc,33.20
2022-01-23T08:51:00,mcc,33.89
2022-01-23T08:52:00,mcc,35.43
2022-01-23T08:53:00,mcc,37.12
2022-01-23T08:54:00,mcc,38.16
2022-01-23T08:55:00,mcc,38.96
2022-01-23T08:56:00,mcc,36.34
2022-01-23T08:57:00,mcc,42.46
2022-01-23T08:58:00,mcc,35.30
2022-01-23T08:59:00,mcc,32.07
2022-01-23T09:00:00,mcc,33.93
2022-01-23T09:01:00,mcc,32.74
2022-01-23T09:02:00,mcc,33.52
2022-01-23T09:03:00,mcc,33.18
2022-01-23T09:04:00,mcc,34.45
2022-01-23T09:05:00,mcc,34.97
2022-01-23T09:06:00,mcc,35.76
2022-01-23T09:07:00,mcc,35.60
2022-01-23T09:08:00,mcc,35.39
2022-01-23T09:09:00,mcc,36.26
2022-01-23T09:10:00,mcc,34.93
2022-01-23T09:11:00,mcc,34.62
2022-01-23T09:12:00,mcc,34.56
2022-01-23T09:13:00,mcc,35.88
2022-01-23T09:14:00,mcc,33.30
2022-01-23T09:15:00,mcc,41.71
2022-01-23T09:16:00,mcc,35.20
2022-01-23T09:17:00,mcc,34.47
2022-01-23T09:18:00,mcc,36.15
2022-01-23T09:19:00,mcc,38.37
2022-01-23T09:20:00,mcc,37.61
2022-01-23T09:21:00,mcc,34.68
2022-01-23T09:22:00,mcc,34.39
2022-01-23T09:23:00,mcc,36.68
2022-01-23T09:24:00,mcc,35.18
2022-01-23T09:25:00,mcc,38.12
2022-01-23T09:26:00,mcc,37.95
2022-01-23T09:27:00,mcc,38.73
2022-01-23T09:28:00,mcc,40.17
2022-01-23T09:29:00,mcc,34.12
2022-01-23T09:30:00,mcc,34.79
2022-01-23T09:31:00,mcc,36.39
2022-01-23T09:32:00,mcc,35.62
2022-01-23T09:33:00,mcc,43.66
2022-01-23T09:34:00,mcc,37.79
2022-01-23T09:35:00,mcc,35.59
2022-01-23T09:36:00,mcc,35.85
2022-01-23T09:37:00,mcc,36.03
2022-01-23T09:38:00,mcc,36.03
2022-01-23T09:39:00,mcc,34.81
2022-01-23T09:40:00,mcc,34.70
2022-01-23T09:41:00,mcc,33.16
2022-01-23T09:42:00,mcc,32.62
2022-01-23T09:43:00,mcc,32.33
2022-01-23T09:44:00,mcc,33.26
2022-01-23T09:45:00,mcc,35.57
2022-01-23T09:46:00,mcc,33.08
2022-01-23T09:47:00,mcc,35.44
2022-01-23T09:48:00,mcc,37.13
2022-01-23T09:49:00,mcc,35.84
2022-01-23T09:50:00,mcc,42.92
2022-01-23T09:51:00,mcc,36.71
2022-01-23T09:52:00,mcc,36.79
2022-01-23T09:53:00,mcc,36.37
2022-01-23T09:54:00,mcc,37.03
2022-01-23T09:55:00,mcc,33.07
2022-01-23T09:56:00,mcc,33.04
2022-01-23T09:57:00,mcc,35.74
2022-01-23T09:58:00,mcc,37.84
2022-01-23T09:59:00,mcc,38.79
2022-01-23T10:00:00,mcc,39.98
2022-01-23T10:01:00,mcc,35.50
2022-01-23T10:02:00,mcc,35.45
2022-01-23T10:03:00,mcc,36.74
2022-01-23T10:04:00,mcc,35.84
2022-01-23T10:05:00,mcc,34.93
2022-01-23T10:06:00,mcc,39.35
2022-01-23T10:07:00,mcc,43.65
2022-01-23T10:08:00,mcc,40.28
2022-01-23T10:09:00,mcc,39.88
2022-01-23T10:10:00,mcc,41.86
2022-01-23T10:11:00,mcc,42.61
2022-01-23T10:12:00,mcc,44.34
2022-01-23T10:13:00,mcc,44.34
2022-01-23T10:14:00,mcc,43.79
2022-01-23T10:15:00,mcc,44.52
2022-01-23T10:16:00,mcc,43.55
2022-01-23T10:17:00,mcc,44.78
2022-01-23T10:18:00,mcc,43.22
2022-01-23T10:19:00,mcc,43.90
2022-01-23T10:20:00,mcc,45.27
2022-01-23T10:21:00,mcc,43.80
2022-01-23T10:22:00,mcc,43.99
2022-01-23T10:23:00,mcc,48.08
2022-01-23T10:24:00,mcc,45.08
2022-01-23T10:25:00,mcc,52.43
2022-01-23T10:26:00,mcc,47.59
2022-01-23T10:27:00,mcc,45.00
2022-01-23T10:28:00,mcc,46.43
2022-01-23T10:29:00,mcc,46.27
2022-01-23T10:30:00,mcc,44.84
2022-01-23T10:31:00,mcc,48.62
2022-01-23T10:32:00,mcc,48.99
2022-01-23T10:33:00,mcc,48.16
2022-01-23T10:34:00,mcc,49.98
2022-01-23T10:35:00,mcc,47.80
2022-01-23T10:36:00,mcc,43.19
2022-01-23T10:37:00,mcc,43.02
2022-01-23T10:38:00,mcc,43.05
2022-01-23T10:39:00,mcc,45.13
2022-01-23T10:40:00,mcc,44.92
2022-01-23T10:41:00,mcc,43.66
2022-01-23T10:42:00,mcc,51.30
2022-01-23T10:43:00,mcc,44.18
2022-01-23T10:44:00,mcc,44.30
2022-01-23T10:45:00,mcc,41.44
2022-01-23T10:46:00,mcc,44.20
2022-01-23T10:47:00,mcc,43.58
2022-01-23T10:48:00,mcc,42.42
2022-01-23T10:49:00,mcc,45.05
2022-01-23T10:50:00,mcc,43.02
2022-01-23T10:51:00,mcc,41.41
2022-01-23T10:52:00,mcc,43.44
2022-01-23T10:53:00,mcc,41.93
2022-01-23T10:54:00,mcc,42.69
2022-01-23T10:55:00,mcc,44.91
2022-01-23T10:56:00,mcc,43.66
2022-01-23T10:57:00,mcc,45.65
2022-01-23T10:58:00,mcc,50.57
2022-01-23T10:59:00,mcc,47.99
2022-01-23T11:00:00,mcc,57.18
2022-01-23T11:01:00,mcc,51.41
2022-01-23T11:02:00,mcc,46.50
2022-01-23T11:03:00,mcc,41.93
2022-01-23T11:04:00,mcc,44.88
2022-01-23T11:05:00,mcc,43.52
2022-01-23T11:06:00,mcc,42.51
2022-01-23T11:07:00,mcc,45.17
2022-01-23T11:08:00,mcc,43.81
2022-01-23T11:09:00,mcc,42.55
2022-01-23T11:10:00,mcc,43.68
2022-01-23T11:11:00,mcc,41.74
2022-01-23T11:12:00,mcc,42.25
2022-01-23T11:13:00,mcc,53.44
2022-01-23T11:14:00,mcc,55.18
2022-01-23T11:15:00,mcc,48.96
2022-01-23T11:16:00,mcc,37.57
2022-01-23T11:17:00,mcc,38.00
2022-01-23T11:18:00,mcc,38.74
2022-01-23T11:19:00,mcc,37.78
2022-01-23T11:20:00,mcc,37.94
2022-01-23T11:21:00,mcc,42.98
2022-01-23T11:22:00,mcc,41.06
2022-01-23T11:23:00,mcc,39.01
2022-01-23T11:24:00,mcc,47.18
2022-01-23T11:25:00,mcc,44.95
2022-01-23T11:26:00,mcc,45.66
2022-01-23T11:27:00,mcc,47.25
2022-01-23T11:28:00,mcc,53.70
2022-01-23T11:29:00,mcc,51.40
2022-01-23T11:30:00,mcc,52.61
2022-01-23T11:31:00,mcc,50.29
2022-01-23T11:32:00,mcc,50.71
2022-01-23T11:33:00,mcc,47.96
2022-01-23T11:34:00,mcc,45.05
2022-01-23T11:35:00,mcc,45.43
2022-01-23T11:36:00,mcc,45.84
2022-01-23T11:37:00,mcc,45.15
2022-01-23T11:38:00,mcc,42.04
2022-01-23T11:39:00,mcc,44.95
2022-01-23T11:40:00,mcc,44.27
2022-01-23T11:41:00,mcc,42.67
2022-01-23T11:42:00,mcc,44.07
2022-01-23T11:43:00,mcc,43.38
2022-01-23T11:44:00,mcc,45.81
2022-01-23T11:45:00,mcc,49.68
2022-01-23T11:46:00,mcc,49.49
2022-01-23T11:47:00,mcc,48.63
2022-01-23T11:48:00,mcc,51.61
2022-01-23T11:49:00,mcc,54.09
2022-01-23T11:50:00,mcc,52.01
2022-01-23T11:51:00,mcc,51.36
2022-01-23T11:52:00,mcc,53.07
2022-01-23T11:53:00,mcc,56.65
2022-01-23T11:54:00,mcc,49.62
2022-01-23T11:55:00,mcc,47.84
2022-01-23T11:56:00,mcc,45.91
2022-01-23T11:57:00,mcc,45.59
2022-01-23T11:58:00,mcc,47.27
2022-01-23T11:59:00,mcc,47.25
2022-01-23T12:00:00,mcc,44.80
2022-01-23T12:01:00,mcc,45.99
2022-01-23T12:02:00,mcc,47.32
2022-01-23T12:03:00,mcc,46.72
2022-01-23T12:04:00,mcc,48.80
2022-01-23T12:05:00,mcc,51.89
2022-01-23T12:06:00,mcc,50.56
2022-01-23T12:07:00,mcc,51.14
2022-01-23T12:08:00,mcc,51.67
2022-01-23T12:09:00,mcc,51.12
2022-01-23T12:10:00,mcc,56.66
2022-01-23T12:11:00,mcc,48.41
2022-01-23T12:12:00,mcc,48.39
2022-01-23T12:13:00,mcc,46.97
2022-01-23T12:14:00,mcc,46.90
2022-01-23T12:15:00,mcc,46.94
2022-01-23T12:16:00,mcc,47.15
2022-01-23T12:17:00,mcc,47.73
2022-01-23T12:18:00,mcc,47.52
2022-01-23T12:19:00,mcc,47.40
2022-01-23T12:20:00,mcc,49.08
2022-01-23T12:21:00,mcc,47.81
2022-01-23T12:22:00,mcc,47.37
2022-01-23T12:23:00,mcc,46.57
2022-01-23T12:24:00,mcc,43.90
2022-01-23T12:25:00,mcc,45.04
2022-01-23T12:26:00,mcc,50.18
2022-01-23T12:27:00,mcc,51.36
2022-01-23T12:28:00,mcc,47.44
2022-01-23T12:29:00,mcc,48.21
2022-01-23T12:30:00,mcc,47.20
2022-01-23T12:31:00,mcc,46.70
2022-01-23T12:32:00,mcc,48.24
2022-01-23T12:33:00,mcc,49.80
2022-01-23T12:34:00,mcc,47.95
2022-01-23T12:35:00,mcc,47.41
2022-01-23T12:36:00,mcc,46.05
2022-01-23T12:37:00,mcc,45.90
2022-01-23T12:38:00,mcc,47.82
2022-01-23T12:39:00,mcc,50.29
2022-01-23T12:40:00,mcc,49.99
2022-01-23T12:41:00,mcc,49.76
2022-01-23T12:42:00,mcc,49.06
2022-01-23T12:43:00,mcc,49.23
2022-01-23T12:44:00,mcc,50.38
2022-01-23T12:45:00,mcc,59.49
2022-01-23T12:46:00,mcc,48.87
2022-01-23T12:47:00,mcc,48.62
2022-01-23T12:48:00,mcc,46.44
2022-01-23T12:49:00,mcc,46.94
2022-01-23T12:50:00,mcc,49.29
2022-01-23T12:51:00,mcc,45.89
2022-01-23T12:52:00,mcc,45.75
2022-01-23T12:53:00,mcc,46.59
2022-01-23T12:54:00,mcc,45.47
2022-01-23T12:55:00,mcc,43.13
2022-01-23T12:56:00,mcc,44.68
2022-01-23T12:57:00,mcc,46.20
2022-01-23T12:58:00,mcc,45.36
2022-01-23T12:59:00,mcc,45.93
2022-01-23T13:00:00,mcc,47.96
2022-01-23T13:01:00,mcc,45.48
2022-01-23T13:02:00,mcc,54.71
2022-01-23T13:03:00,mcc,51.25
2022-01-23T13:04:00,mcc,48.57
2022-01-23T13:05:00,mcc,47.47
2022-01-23T13:06:00,mcc,46.72
2022-01-23T13:07:00,mcc,47.27
2022-01-23T13:08:00,mcc,49.60
2022-01-23T13:09:00,mcc,48.72
2022-01-23T13:10:00,mcc,52.32
2022-01-23T13:11:00,mcc,48.99
2022-01-23T13:12:00,mcc,50.27
2022-01-23T13:13:00,mcc,52.22
2022-01-23T13:14:00,mcc,51.24
2022-01-23T13:15:00,mcc,49.08
2022-01-23T13:16:00,mcc,47.19
2022-01-23T13:17:00,mcc,46.34
2022-01-23T13:18:00,mcc,46.60